Voltar ao catálogo

STARLINK-30345

AtivoComunicaçõesVLEO
NORAD 57701·PAYLOAD·🇺🇸 United States

Lançado Aug 27, 2023 de Cape Canaveral Space Force Station

Loading…

Próximas Passagens (próximas 24 horas)

TLE

AtualizadoSource: CelesTrak SupGP

Época: Sep 14, 2026, 22:28 UTC

1 57701C 23129D   26257.93659722 -.00042890  00000+0 -15537-2 0  2576
2 57701  43.0004 129.0570 0001395 270.6325 191.3261 15.27594633    19

Acompanhe STARLINK-30345 em tempo real com AllMySat

Download on the App Store